Location: Nairn
(57.5833°N, 3.8667°W)
Time: 22:55:17
(UTC+00:00)

S-56A Canister/Altair - Pass Details

Date: 06 October 2022
Orbit: 638 x 2494 km, 38.9° (Epoch: 09 December)

Event Time Altitude Azimuth Distance (km) Brightness Sun altitude
Exits shadow 02:02:00 16° 139° (SE) 3,064 10.4 -32.6°
Drops below altitude 10° 02:03:47 10° 128° (SE) 3,347 10.7 -32.5°
Sets 02:06:53 0° 114° (ESE) 4,045 11.4 -32.2°
